• In United Kingdom
  • List of Countries
  • For 7 days
  • Water Temperature
  • Satellite Maps
  • Weather Map
  • Weather Widgets
  • user-avatar
    Login

    Hourly Weather Kitzbuhel

    Today, 20 September, Thursday

    Time Temperature Precipitation Wind Pressure Humidity
    00:00 +13°C° 0 mm 1 mps 682 mmHg 86%
    01:00 +13°C° 0 mm 1 mps 681 mmHg 85%
    02:00 +12°C° 0 mm 1 mps 681 mmHg 83%
    03:00 +12°C° 0 mm 1 mps 681 mmHg 81%
    04:00 +12°C° 0 mm 1 mps 681 mmHg 80%
    05:00 +12°C° 0 mm 1 mps 681 mmHg 78%
    06:00 +13°C° 0 mm 1 mps 681 mmHg 77%
    07:00 +13°C° 0 mm 1 mps 681 mmHg 76%
    08:00 +16°C° 0 mm 1 mps 682 mmHg 67%
    09:00 +18°C° 0 mm 0 mps 683 mmHg 58%
    10:00 +21°C° 0 mm 0 mps 683 mmHg 49%
    11:00 +22°C° 0 mm 0 mps 683 mmHg 47%
    12:00 +24°C° 0 mm 1 mps 683 mmHg 45%
    13:00 +25°C° 0 mm 1 mps 683 mmHg 43%
    14:00 +25°C° 0 mm 1 mps 682 mmHg 47%
    15:00 +24°C° 0 mm 1 mps 682 mmHg 50%
    16:00 +24°C° 0 mm 1 mps 681 mmHg 54%
    17:00 +21°C° 0 mm 1 mps 681 mmHg 65%
    18:00 +19°C° 0 mm 1 mps 680 mmHg 76%
    19:00 +15°C° 0 mm 1 mps 680 mmHg 87%
    20:00 +15°C° 0 mm 1 mps 680 mmHg 86%
    21:00 +14°C° 0 mm 1 mps 680 mmHg 86%
    22:00 +14°C° 0 mm 2 mps 680 mmHg 85%
    23:00 +14°C° 0 mm 2 mps 679 mmHg 85%

    Tomorrow, 21 September, Friday

    Time Temperature Precipitation Wind Pressure Humidity
    00:00 +14°C° 0 mm 2 mps 679 mmHg 84%
    01:00 +13°C° 0 mm 2 mps 679 mmHg 84%
    02:00 +13°C° 0 mm 2 mps 679 mmHg 84%
    03:00 +13°C° 0 mm 2 mps 678 mmHg 84%
    04:00 +13°C° 0 mm 2 mps 678 mmHg 85%
    05:00 +13°C° 0 mm 2 mps 678 mmHg 84%
    06:00 +14°C° 0 mm 2 mps 678 mmHg 83%
    07:00 +14°C° 0 mm 2 mps 678 mmHg 82%
    08:00 +18°C° 0 mm 1 mps 679 mmHg 72%
    09:00 +21°C° 0 mm 1 mps 679 mmHg 61%
    10:00 +24°C° 0 mm 1 mps 680 mmHg 51%
    11:00 +25°C° 0 mm 1 mps 680 mmHg 48%
    12:00 +25°C° 0 mm 1 mps 680 mmHg 45%
    13:00 +26°C° 0 mm 2 mps 679 mmHg 42%
    14:00 +25°C° 0 mm 2 mps 679 mmHg 47%
    15:00 +24°C° 0 mm 2 mps 679 mmHg 52%
    16:00 +24°C° 0 mm 1 mps 678 mmHg 57%
    17:00 +22°C° 0.2 mm 1 mps 678 mmHg 66%
    18:00 +20°C° 0.2 mm 1 mps 679 mmHg 75%
    19:00 +15°C° 0.2 mm 0 mps 679 mmHg 84%
    20:00 +16°C° 0.5 mm 1 mps 679 mmHg 88%
    21:00 +16°C° 0.5 mm 1 mps 680 mmHg 91%
    22:00 +15°C° 0.5 mm 1 mps 680 mmHg 94%
    23:00 +15°C° 0.6 mm 1 mps 680 mmHg 95%

    Day after tomorrow, 22 September, Saturday

    Time Temperature Precipitation Wind Pressure Humidity
    00:00 +15°C° 0.6 mm 1 mps 680 mmHg 96%
    01:00 +14°C° 0.6 mm 0 mps 680 mmHg 97%
    02:00 +14°C° 0.4 mm 1 mps 680 mmHg 97%
    03:00 +14°C° 0.4 mm 1 mps 680 mmHg 97%
    04:00 +13°C° 0.4 mm 1 mps 680 mmHg 97%
    05:00 +13°C° 0.3 mm 1 mps 680 mmHg 97%
    06:00 +12°C° 0.3 mm 1 mps 680 mmHg 97%
    07:00 +12°C° 0.3 mm 1 mps 681 mmHg 97%
    08:00 +12°C° 0.3 mm 1 mps 681 mmHg 96%
    09:00 +11°C° 0.3 mm 1 mps 681 mmHg 96%
    10:00 +11°C° 0.3 mm 1 mps 681 mmHg 95%
    11:00 +12°C° 0.3 mm 1 mps 681 mmHg 91%
    12:00 +13°C° 0.3 mm 1 mps 681 mmHg 87%
    13:00 +14°C° 0.3 mm 1 mps 681 mmHg 83%
    14:00 +14°C° 0.1 mm 1 mps 681 mmHg 83%
    15:00 +14°C° 0.1 mm 1 mps 681 mmHg 83%
    16:00 +14°C° 0.1 mm 1 mps 681 mmHg 82%
    17:00 +13°C° 0.1 mm 1 mps 681 mmHg 85%
    18:00 +12°C° 0.1 mm 1 mps 681 mmHg 89%
    19:00 +11°C° 0.1 mm 1 mps 681 mmHg 92%
    20:00 +11°C° 0.1 mm 1 mps 681 mmHg 92%
    21:00 +11°C° 0.1 mm 1 mps 681 mmHg 92%
    22:00 +11°C° 0.1 mm 1 mps 681 mmHg 92%
    23:00 +11°C° 0.1 mm 1 mps 681 mmHg 91%

    23 September, Sunday

    Time Temperature Precipitation Wind Pressure Humidity
    00:00 +12°C° 0.1 mm 1 mps 681 mmHg 91%
    01:00 +11°C° 0.1 mm 0 mps 681 mmHg 90%
    02:00 +11°C° 0.1 mm 0 mps 681 mmHg 90%
    03:00 +11°C° 0.1 mm 0 mps 681 mmHg 91%
    04:00 +11°C° 0.1 mm 0 mps 681 mmHg 91%
    05:00 +12°C° 0.1 mm 1 mps 680 mmHg 91%
    06:00 +13°C° 0.1 mm 1 mps 680 mmHg 91%
    07:00 +13°C° 0.1 mm 1 mps 680 mmHg 91%
    08:00 +14°C° 0.2 mm 1 mps 680 mmHg 90%
    09:00 +14°C° 0.2 mm 1 mps 680 mmHg 89%
    10:00 +15°C° 0.2 mm 1 mps 680 mmHg 88%
    11:00 +19°C° 0 mm 1 mps 680 mmHg 79%
    12:00 +21°C° 0 mm 1 mps 680 mmHg 70%
    13:00 +24°C° 0 mm 1 mps 680 mmHg 61%
    14:00 +24°C° 0 mm 2 mps 679 mmHg 62%
    15:00 +24°C° 0 mm 2 mps 678 mmHg 63%
    16:00 +24°C° 0 mm 2 mps 678 mmHg 64%
    17:00 +21°C° 0 mm 2 mps 677 mmHg 73%
    18:00 +19°C° 0 mm 2 mps 676 mmHg 82%
    19:00 +16°C° 0 mm 2 mps 675 mmHg 91%
    20:00 +16°C° 0 mm 2 mps 674 mmHg 90%
    21:00 +16°C° 0 mm 3 mps 673 mmHg 89%
    22:00 +16°C° 0 mm 3 mps 672 mmHg 89%
    23:00 +14°C° 0.8 mm 4 mps 672 mmHg 90%

    24 September, Monday

    Time Temperature Precipitation Wind Pressure Humidity
    00:00 +14°C° 0.8 mm 4 mps 671 mmHg 91%
    01:00 +14°C° 0.8 mm 4 mps 670 mmHg 92%
    02:00 +12°C° 4.3 mm 5 mps 671 mmHg 90%
    03:00 +10°C° 4.3 mm 5 mps 671 mmHg 88%
    04:00 +8°C° 4.3 mm 6 mps 671 mmHg 87%
    05:00 +7°C° 0.6 mm 6 mps 672 mmHg 88%
    06:00 +6°C° 0.6 mm 7 mps 673 mmHg 89%
    07:00 +5°C° 0.6 mm 7 mps 675 mmHg 90%
    08:00 +5°C° 0.6 mm 7 mps 676 mmHg 87%
    09:00 +5°C° 0.6 mm 6 mps 677 mmHg 85%
    10:00 +5°C° 0.6 mm 6 mps 678 mmHg 82%
    11:00 +7°C° 0.3 mm 6 mps 678 mmHg 81%
    12:00 +7°C° 0.3 mm 5 mps 679 mmHg 79%
    13:00 +7°C° 0.3 mm 5 mps 679 mmHg 78%
    14:00 +7°C° 0.2 mm 5 mps 680 mmHg 79%
    15:00 +7°C° 0.2 mm 4 mps 680 mmHg 79%
    16:00 +6°C° 0.2 mm 4 mps 681 mmHg 79%
    17:00 +7°C° 0.4 mm 3 mps 681 mmHg 82%
    18:00 +5°C° 0.4 mm 3 mps 682 mmHg 86%
    19:00 +4°C° 0.4 mm 3 mps 682 mmHg 89%
    20:00 +4°C° 0.6 mm 3 mps 683 mmHg 89%
    21:00 +4°C° 0.6 mm 3 mps 683 mmHg 90%
    22:00 +4°C° 0.6 mm 3 mps 684 mmHg 91%
    23:00 +3°C° 0.7 mm 3 mps 684 mmHg 91%

    25 September, Tuesday

    Time Temperature Precipitation Wind Pressure Humidity
    00:00 +3°C° 0.7 mm 3 mps 684 mmHg 92%
    01:00 +3°C° 0.7 mm 3 mps 685 mmHg 92%
    02:00 +2°C° 0.2 mm 3 mps 685 mmHg 92%
    03:00 +3°C° 0.2 mm 2 mps 685 mmHg 93%
    04:00 +3°C° 0.2 mm 2 mps 685 mmHg 93%
    05:00 +2°C° 0 mm 2 mps 686 mmHg 92%
    06:00 +2°C° 0 mm 2 mps 686 mmHg 91%
    07:00 +2°C° 0 mm 2 mps 686 mmHg 90%
    08:00 +2°C° 0 mm 3 mps 686 mmHg 82%
    09:00 +4°C° 0 mm 3 mps 686 mmHg 74%
    10:00 +7°C° 0 mm 3 mps 687 mmHg 66%
    11:00 +7°C° 0.1 mm 3 mps 687 mmHg 66%
    12:00 +8°C° 0.1 mm 3 mps 687 mmHg 66%
    13:00 +8°C° 0.1 mm 3 mps 686 mmHg 66%
    14:00 +8°C° 0.2 mm 3 mps 686 mmHg 68%
    15:00 +8°C° 0.2 mm 3 mps 686 mmHg 70%
    16:00 +8°C° 0.2 mm 3 mps 686 mmHg 71%
    17:00 +7°C° 0.2 mm 2 mps 686 mmHg 77%
    18:00 +5°C° 0.2 mm 2 mps 686 mmHg 83%
    19:00 +5°C° 0.2 mm 1 mps 687 mmHg 89%
    20:00 +4°C° 0.1 mm 2 mps 687 mmHg 89%
    21:00 +4°C° 0.1 mm 2 mps 687 mmHg 89%
    22:00 +3°C° 0.1 mm 2 mps 687 mmHg 90%
    23:00 +3°C° 0 mm 2 mps 687 mmHg 88%
    Show more